Wind_Speed
1 7 16 21 22 24 33 34 28 35 32 28 29 27 28 29 26 25 29 29 32 32 29 31 31 29 25 23 25 34 38 40 35 34 32 30 29 31 32 33 33 34 35 37 42 46 47 50 53
12 5 7 20 23 24 26 29 30 32 34 34 32 30 32 33 35 28 35 36 32 36 35 34 34 33 31 28 27 30 34 35 35 33 32 31 31 32 36 32 36 37 39 40 43 47 50 51 51
14 13 8 9 21 25 27 27 30 35 37 37 38 38 35 35 37 41 34 37 39 36 38 38 35 34 32 34 35 34 35 35 38 37 34 34 36 36 35 36 38 38 38 41 43 45 45 45 45
20 17 13 11 9 13 25 30 32 35 40 42 42 43 42 41 37 40 42 40 39 38 41 41 41 43 40 41 38 40 40 39 39 37 39 41 41 41 43 44 41 38 40 40 39 39 39 37 38
14 17 15 14 15 12 12 16 25 33 35 39 41 42 45 46 46 44 45 45 46 44 43 46 49 47 47 48 46 44 43 45 45 47 48 47 49 46 38 39 38 39 39 38 35 34 35 35 35
10 15 16 14 16 16 12 12 15 20 24 32 37 39 40 44 49 50 49 50 50 50 49 50 52 51 50 50 52 52 52 53 51 54 52 46 47 45 38 37 39 39 39 37 34 32 31 31 32
18 18 18 17 15 17 16 14 12 11 14 19 25 31 36 40 42 45 47 49 50 50 52 52 53 54 52 53 53 53 53 54 55 54 49 40 39 40 40 39 37 38 37 36 37 36 32 32 31
28 25 23 20 19 20 17 20 20 21 23 17 11 23 31 34 39 44 47 47 48 49 49 50 52 52 52 54 53 53 55 55 51 48 42 35 41 39 38 33 33 31 30 31 37 40 35 33 32
32 27 23 25 18 17 18 22 23 24 25 27 22 19 18 26 37 41 43 45 47 50 51 51 52 53 53 53 54 53 53 50 48 43 40 38 41 38 36 31 31 33 36 40 40 37 37 36 34
30 28 25 28 29 26 25 27 29 32 30 28 29 28 25 30 28 36 41 43 44 45 45 47 49 51 52 52 50 48 48 47 44 42 43 42 40 35 35 32 36 36 33 31 33 36 35 34 33
29 26 28 28 26 30 34 34 35 36 38 40 37 31 34 33 33 30 34 41 43 46 45 45 47 46 46 48 48 50 48 46 45 45 38 34 33 34 35 33 30 32 38 39 36 37 33 32 31
26 27 30 31 33 38 40 44 42 42 44 47 47 42 41 39 37 37 34 36 40 42 44 45 44 43 43 43 43 36 33 35 36 29 28 29 31 34 30 30 34 36 29 27 34 34 28 27 26
37 32 30 32 37 41 46 50 51 52 52 51 50 48 48 45 42 40 39 39 39 38 39 37 37 34 34 34 30 27 26 26 24 27 31 33 36 36 35 31 31 32 25 28 30 27 24 23 25
40 38 34 39 46 49 52 56 58 61 60 57 55 52 51 50 47 45 44 44 42 40 37 36 36 35 32 28 25 26 24 25 24 28 30 36 36 32 27 26 27 22 21 23 17 14 16 16 18
42 39 38 43 48 52 57 58 59 61 61 57 52 52 52 52 51 45 46 48 44 42 39 38 35 34 30 27 28 27 26 26 26 27 27 30 32 27 25 21 25 24 24 25 24 24 18 18 20
41 45 43 49 52 53 53 49 46 49 52 51 45 46 50 53 52 47 48 49 46 43 41 39 36 36 33 31 28 28 24 27 26 24 29 27 23 25 25 27 26 27 31 29 27 30 33 33 39
44 49 50 53 54 47 46 46 44 48 50 50 47 47 45 46 47 47 47 49 46 43 42 39 38 37 34 34 32 32 32 31 32 32 31 27 27 31 31 28 30 33 31 31 30 36 42 42 43
45 48 52 53 47 47 46 46 46 47 48 47 45 45 44 43 43 41 46 49 47 44 43 42 38 34 35 37 38 35 35 35 31 30 39 34 28 31 31 29 34 35 35 37 41 42 41 45 47
46 48 50 46 46 47 44 43 42 42 41 40 43 42 43 42 42 40 40 44 45 44 44 41 37 31 31 38 38 37 41 34 32 27 24 32 38 36 34 38 35 40 39 44 44 46 47 47 49
45 48 46 42 39 37 34 30 31 35 36 34 38 40 39 39 38 38 37 37 40 41 43 43 40 37 33 37 38 36 39 37 37 34 29 34 39 42 44 45 41 41 44 45 48 53 50 48 53
46 47 42 36 33 30 26 19 18 39 40 34 32 35 35 35 33 35 36 36 37 40 44 42 40 39 36 36 38 37 45 42 37 38 33 38 47 48 47 46 46 43 44 53 56 53 48 53 54
44 43 37 34 30 27 21 18 5 31 33 35 32 31 31 32 31 31 33 35 37 41 43 46 44 44 43 41 41 43 51 45 46 45 44 36 42 41 38 37 50 49 50 53 55 55 56 59 55
42 39 34 33 29 24 23 22 19 30 33 36 28 28 26 25 29 30 31 33 37 40 43 46 49 48 48 47 47 50 53 52 47 51 46 33 34 38 40 42 48 48 52 54 55 59 51 55 57
40 35 32 31 28 25 24 23 18 20 29 28 23 20 20 23 24 24 28 32 36 39 41 44 47 51 53 52 52 52 54 55 48 54 55 51 44 43 42 44 48 52 56 58 60 61 62 61 65
35 33 29 30 28 24 24 21 15 8 21 23 23 21 20 20 20 23 25 27 29 34 39 42 45 48 52 55 56 57 58 59 58 58 46 45 53 54 51 49 52 57 58 61 62 64 66 64 65
34 31 30 29 29 25 26 25 22 19 20 21 20 18 20 19 20 20 21 24 28 32 34 37 42 48 52 54 57 59 59 61 61 62 66 60 51 56 59 62 65 65 66 68 70 69 67 65 67
34 32 32 30 27 28 25 27 26 24 22 21 21 22 18 15 16 18 16 17 19 22 25 31 37 41 44 49 54 58 59 61 62 63 67 69 72 70 60 60 63 64 63 63 67 67 69 74 75
35 34 32 32 30 28 28 29 28 30 28 25 23 22 20 17 17 18 18 20 20 18 22 23 25 28 32 35 40 46 51 57 62 65 68 69 72 75 75 77 80 80 81 79 82 82 87 81 68
38 36 34 33 32 30 31 31 29 27 31 28 27 24 23 20 18 19 21 21 23 25 25 26 24 22 23 25 26 28 30 32 39 48 58 66 73 78 79 79 82 82 83 86 88 85 76 84 77
37 39 36 34 34 34 34 36 30 33 30 31 31 30 27 24 23 21 22 22 23 26 28 30 29 29 29 34 34 34 36 39 41 43 47 49 50 56 66 74 79 81 84 88 89 88 85 83 80
Wind_Direction
21 233 228 223 217 226 226 225 233 214 217 216 217 215 220 218 219 205 231 232 235 245 237 258 261 266 262 267 272 266 268 272 276 284 287 294 299 300 304 304 304 299 294 291 288 286 283 284 286
25 346 246 233 229 228 235 238 232 216 219 224 224 225 227 225 222 222 225 233 241 242 247 251 261 268 275 276 279 273 280 277 281 289 293 295 295 295 299 299 298 299 295 287 283 281 281 281 284
10 359 347 279 245 243 241 241 239 235 231 230 236 236 237 234 234 231 236 237 245 249 250 258 263 266 269 271 275 278 281 287 287 290 289 292 287 291 293 297 304 301 296 290 286 285 283 282 281
8 358 342 334 299 278 257 246 241 241 239 239 243 249 244 241 242 237 241 250 249 253 257 261 264 266 268 269 272 275 277 282 287 285 289 290 288 289 291 294 299 303 294 290 287 285 284 282 280
0 349 344 327 304 291 273 269 263 253 249 247 248 250 250 247 247 246 247 249 253 257 258 257 260 266 269 271 275 279 279 284 287 288 287 284 288 288 296 300 303 299 291 286 284 284 286 284 284
327 328 327 323 313 293 282 275 274 271 263 259 256 254 253 253 253 256 255 255 255 258 258 259 262 267 269 271 273 275 276 282 286 286 287 287 289 291 295 300 303 295 289 286 283 283 285 288 285
324 307 300 295 304 292 284 260 251 266 272 268 262 262 261 258 257 257 257 259 261 259 259 261 263 264 267 270 273 274 278 283 284 283 287 287 284 287 292 297 301 291 287 287 284 282 286 287 287
328 294 288 279 287 287 273 263 262 264 268 250 263 279 262 258 261 259 259 260 263 265 266 266 267 266 268 271 275 278 279 282 284 286 288 279 282 290 294 294 293 284 284 295 300 290 280 281 285
320 303 284 284 279 281 277 283 278 276 282 269 266 263 268 269 258 257 258 260 264 266 267 268 269 271 273 275 275 277 278 280 283 283 279 283 289 289 292 287 276 275 284 297 299 298 290 280 283
308 308 291 280 283 272 273 286 288 284 281 282 281 273 279 274 276 265 263 262 262 261 263 266 268 270 272 273 275 275 277 276 280 279 281 287 288 288 287 279 278 283 287 298 299 300 294 282 282
299 307 300 289 288 281 275 274 284 284 285 284 282 277 276 281 281 280 274 266 265 265 266 266 267 268 269 271 273 274 279 280 280 279 286 285 286 285 282 281 286 292 298 297 295 297 290 280 281
303 304 294 286 286 291 292 292 287 284 284 282 283 283 279 282 284 282 275 267 264 262 261 263 265 267 268 270 274 279 280 278 273 276 283 278 280 277 284 282 287 291 299 299 301 288 282 285 279
317 300 288 290 292 294 294 291 288 288 285 282 280 281 282 281 279 278 274 268 261 262 263 261 260 260 263 270 276 272 271 280 271 263 278 279 277 288 294 290 292 297 303 305 306 293 292 287 282
304 300 294 300 299 298 296 294 292 290 287 283 280 278 273 272 272 270 269 270 261 258 262 261 259 262 265 273 266 266 273 279 273 271 280 278 282 289 293 297 301 298 305 309 301 306 308 305 301
301 297 296 299 299 295 292 291 288 285 284 281 276 273 269 265 262 260 260 260 257 256 258 260 258 259 256 261 262 269 279 269 259 265 278 280 280 281 290 298 303 299 298 299 294 300 301 301 304
299 301 306 307 304 302 297 293 290 286 284 283 279 274 268 262 259 256 253 255 256 255 256 260 256 252 250 251 256 261 264 259 258 268 268 267 275 283 298 300 304 297 291 294 292 289 293 300 304
306 310 308 312 312 309 305 301 295 287 283 282 282 274 268 266 261 255 251 253 252 253 254 256 254 251 248 248 252 246 246 251 262 262 266 269 280 290 295 305 300 297 294 284 293 299 297 299 303
311 314 316 315 312 309 304 300 296 289 284 282 277 274 271 267 264 258 251 249 250 250 250 250 251 250 246 248 250 252 250 255 251 256 266 269 280 292 293 301 300 292 290 289 286 293 299 298 297
314 319 318 317 312 309 305 302 296 294 290 286 281 276 272 266 264 262 258 254 252 251 252 250 250 253 254 255 258 258 258 253 250 253 265 288 287 290 286 294 293 291 288 286 288 290 298 293 295
322 319 319 315 312 318 321 321 314 307 298 286 283 279 274 270 269 266 261 256 252 249 251 253 251 251 250 252 253 257 252 245 247 253 262 268 270 276 279 286 284 275 280 278 285 296 290 290 293
315 319 318 315 315 327 346 4 7 312 314 305 291 285 281 277 274 269 263 257 249 248 250 252 253 251 248 245 243 245 249 249 250 255 256 264 275 272 274 274 281 277 275 271 282 288 285 291 295
318 320 316 316 322 338 5 11 89 310 341 327 310 297 293 285 276 268 260 259 253 245 247 248 250 251 248 243 236 238 253 252 250 256 261 274 265 273 272 273 272 274 268 272 277 285 289 290 291
320 318 312 316 324 341 359 6 354 348 320 335 333 318 298 290 285 278 268 260 256 256 252 249 249 250 251 251 246 240 243 251 255 253 258 266 260 262 263 263 264 267 267 275 279 285 279 285 284
320 314 309 314 324 337 349 5 45 204 298 326 348 345 326 308 298 285 278 271 264 257 255 255 254 255 255 255 252 249 244 247 249 254 260 266 264 266 268 269 271 267 270 273 274 272 283 284 290
317 307 301 309 317 333 341 344 349 281 311 333 343 351 349 338 313 297 291 283 274 267 262 259 257 254 255 257 258 257 255 254 253 249 258 269 271 268 262 260 262 265 265 274 275 276 280 285 288
316 302 297 303 313 322 328 329 330 329 331 334 335 350 349 348 339 335 325 309 294 286 280 272 265 259 257 257 258 259 261 262 260 258 257 257 262 267 266 263 266 266 267 271 271 279 286 288 291
317 306 292 292 301 310 315 318 321 324 325 326 329 331 336 347 346 343 349 338 314 304 295 289 286 280 274 268 264 262 262 262 262 263 263 262 262 259 256 262 265 266 265 267 271 277 281 286 295
316 309 294 288 294 300 304 306 315 316 316 319 319 322 326 321 323 325 326 327 335 337 334 325 313 301 298 295 288 281 276 272 269 267 267 266 267 267 267 267 267 268 269 265 272 275 285 290 286
313 308 294 286 287 291 296 298 302 308 308 310 311 312 315 315 317 315 319 321 320 323 323 325 326 331 331 328 321 319 315 305 292 285 279 275 272 271 270 271 272 273 272 273 276 280 280 284 286
312 304 296 288 287 290 290 292 302 301 301 304 305 305 305 309 312 308 308 309 313 316 316 319 318 315 320 321 319 320 317 319 317 312 306 302 294 286 280 276 274 275 276 276 277 279 280 281 285
Height
10938 10937 10939 10941 10944 10944 10945 10945 10945 10947 10950 10951 10952 10954 10954 10956 10957 10960 10958 10957 10958 10958 10959 10958 10957 10958 10958 10957 10957 10957 10955 10954 10953 10953 10952 10951 10950 10949 10947 10946 10944 10942 10939 10938 10936 10933 10931 10928 10926
10938 10937 10937 10938 10941 10942 10942 10942 10943 10945 10947 10949 10950 10951 10952 10953 10954 10954 10954 10954 10954 10955 10954 10953 10953 10952 10953 10952 10953 10952 10951 10950 10949 10948 10946 10945 10943 10943 10942 10940 10937 10935 10933 10930 10928 10925 10922 10920 10917
10939 10938 10937 10938 10939 10939 10940 10940 10941 10943 10944 10945 10946 10947 10949 10951 10951 10951 10951 10951 10950 10950 10950 10949 10949 10948 10947 10947 10947 10946 10945 10944 10943 10942 10940 10939 10938 10937 10936 10934 10931 10928 10925 10922 10919 10916 10914 10911 10908
10940 10938 10938 10937 10936 10936 10936 10938 10938 10939 10940 10942 10942 10942 10944 10946 10947 10947 10946 10946 10946 10945 10945 10945 10944 10944 10944 10943 10942 10942 10941 10939 10938 10936 10935 10934 10932 10930 10929 10926 10923 10920 10917 10914 10911 10909 10906 10903 10900
10942 10938 10937 10935 10934 10933 10932 10932 10932 10934 10935 10936 10936 10937 10938 10938 10939 10940 10941 10940 10939 10940 10940 10940 10939 10939 10938 10937 10937 10936 10934 10932 10931 10930 10928 10926 10923 10922 10920 10917 10915 10912 10910 10907 10904 10902 10899 10896 10894
10942 10938 10936 10935 10932 10931 10930 10929 10929 10929 10929 10930 10931 10932 10931 10931 10932 10932 10933 10934 10933 10933 10933 10933 10933 10932 10931 10931 10929 10928 10927 10925 10924 10921 10919 10917 10915 10913 10912 10911 10909 10905 10903 10901 10898 10896 10892 10890 10889
10941 10937 10933 10932 10931 10929 10928 10926 10925 10924 10924 10924 10925 10925 10925 10925 10924 10924 10924 10923 10923 10924 10925 10926 10926 10925 10924 10923 10923 10920 10918 10917 10915 10912 10910 10909 10907 10906 10905 10904 10902 10899 10897 10895 10892 10890 10887 10885 10882
10937 10933 10930 10928 10927 10925 10924 10922 10921 10921 10917 10918 10922 10926 10918 10916 10916 10915 10914 10914 10915 10915 10916 10916 10916 10916 10915 10915 10914 10913 10910 10908 10906 10904 10903 10902 10900 10898 10896 10895 10894 10893 10890 10889 10887 10883 10880 10877 10875
10934 10929 10926 10923 10922 10921 10919 10916 10916 10915 10913 10912 10913 10912 10910 10908 10906 10906 10905 10906 10906 10907 10908 10907 10907 10907 10907 10906 10905 10903 10901 10899 10898 10896 10894 10893 10892 10890 10888 10888 10887 10886 10884 10882 10880 10877 10874 10871 10869
10928 10925 10922 10919 10917 10915 10913 10910 10910 10909 10907 10906 10905 10906 10903 10900 10899 10899 10899 10899 10898 10898 10898 10899 10899 10898 10897 10896 10894 10892 10891 10890 10889 10887 10885 10885 10884 10881 10880 10880 10880 10879 10877 10875 10873 10870 10867 10864 10863
10924 10921 10917 10913 10910 10908 10905 10903 10902 10901 10900 10897 10896 10897 10894 10893 10893 10893 10892 10890 10890 10889 10889 10889 10888 10888 10887 10885 10883 10883 10881 10880 10879 10877 10878 10877 10876 10875 10874 10874 10872 10871 10870 10867 10866 10863 10860 10857 10856
10919 10916 10913 10907 10904 10901 10898 10895 10895 10892 10890 10887 10886 10888 10886 10887 10885 10883 10882 10880 10879 10878 10879 10878 10878 10877 10875 10874 10874 10874 10872 10871 10869 10871 10871 10869 10869 10869 10868 10867 10865 10864 10862 10859 10858 10855 10852 10851 10850
10914 10911 10906 10902 10898 10893 10889 10883 10883 10880 10878 10877 10876 10877 10876 10876 10875 10874 10872 10870 10870 10871 10870 10869 10867 10866 10867 10868 10868 10867 10865 10864 10864 10865 10865 10863 10863 10862 10860 10859 10858 10857 10854 10853 10851 10849 10846 10844 10844
10906 10904 10900 10895 10890 10885 10880 10872 10867 10862 10863 10863 10864 10864 10862 10862 10863 10864 10862 10861 10860 10862 10862 10860 10859 10861 10862 10863 10863 10862 10860 10861 10860 10861 10859 10857 10857 10855 10853 10852 10850 10849 10848 10847 10845 10843 10841 10839 10838
10898 10896 10893 10887 10883 10876 10867 10861 10854 10845 10841 10845 10849 10848 10847 10845 10847 10852 10851 10848 10851 10852 10853 10851 10853 10853 10853 10855 10856 10856 10856 10855 10855 10854 10852 10851 10850 10848 10847 10846 10845 10844 10842 10841 10840 10838 10837 10835 10835
10889 10886 10884 10876 10869 10862 10852 10847 10844 10834 10829 10829 10833 10831 10829 10829 10833 10839 10840 10838 10842 10844 10844 10844 10845 10842 10843 10846 10848 10848 10849 10846 10845 10846 10846 10845 10843 10842 10841 10840 10839 10838 10837 10835 10833 10832 10831 10829 10826
10879 10876 10870 10865 10854 10848 10841 10834 10834 10826 10822 10818 10819 10816 10817 10817 10821 10826 10830 10830 10832 10834 10836 10837 10836 10836 10838 10840 10839 10837 10837 10836 10836 10837 10836 10836 10836 10835 10833 10832 10832 10831 10830 10828 10826 10824 10822 10820 10817
10874 10867 10860 10851 10845 10838 10831 10826 10820 10816 10812 10810 10808 10806 10806 10808 10809 10814 10817 10820 10821 10825 10825 10827 10828 10831 10832 10830 10829 10830 10831 10830 10829 10828 10830 10829 10828 10827 10826 10825 10824 10823 10821 10819 10818 10816 10814 10811 10809
10867 10859 10851 10843 10837 10831 10823 10816 10811 10808 10805 10802 10798 10797 10798 10798 10800 10804 10808 10812 10814 10818 10817 10818 10822 10823 10826 10824 10824 10824 10823 10825 10822 10821 10821 10820 10820 10819 10818 10818 10817 10813 10812 10810 10808 10807 10803 10800 10798
10859 10854 10846 10838 10833 10826 10818 10810 10805 10801 10800 10796 10791 10789 10789 10791 10795 10797 10800 10803 10806 10809 10808 10809 10813 10813 10813 10815 10815 10816 10814 10815 10814 10813 10813 10813 10812 10810 10809 10809 10808 10805 10803 10799 10797 10795 10791 10789 10787
10854 10848 10841 10836 10830 10824 10817 10808 10800 10796 10794 10792 10788 10784 10784 10785 10789 10790 10792 10794 10796 10798 10801 10803 10802 10803 10802 10805 10806 10805 10803 10806 10805 10806 10806 10805 10804 10801 10801 10799 10798 10795 10793 10789 10786 10783 10780 10776 10774
10848 10841 10835 10832 10827 10821 10817 10812 10807 10804 10795 10788 10786 10782 10781 10780 10781 10783 10783 10785 10787 10788 10791 10793 10794 10794 10793 10795 10796 10796 10794 10798 10797 10797 10797 10796 10795 10793 10790 10789 10786 10784 10781 10778 10775 10772 10768 10765 10761
10841 10834 10830 10827 10821 10818 10815 10810 10800 10792 10790 10789 10782 10779 10778 10776 10775 10776 10777 10778 10779 10781 10782 10784 10785 10785 10785 10786 10786 10785 10783 10785 10787 10786 10787 10786 10785 10781 10777 10776 10774 10772 10769 10766 10764 10761 10757 10753 10748
10834 10828 10823 10821 10817 10813 10811 10807 10805 10809 10799 10790 10783 10777 10773 10771 10770 10770 10770 10770 10771 10772 10773 10774 10776 10776 10776 10776 10775 10776 10774 10772 10774 10774 10773 10773 10772 10771 10767 10765 10762 10759 10757 10755 10753 10749 10745 10741 10736
10829 10823 10819 10816 10812 10810 10806 10806 10806 10808 10799 10789 10782 10777 10772 10769 10766 10764 10763 10762 10762 10762 10764 10765 10765 10765 10764 10764 10764 10764 10765 10764 10764 10766 10763 10761 10759 10759 10756 10753 10751 10748 10745 10742 10739 10735 10732 10729 10724
10824 10818 10814 10810 10806 10805 10801 10801 10799 10797 10793 10787 10782 10778 10773 10769 10765 10762 10760 10758 10756 10755 10754 10754 10753 10754 10753 10752 10752 10752 10754 10753 10753 10753 10752 10751 10748 10744 10742 10739 10737 10734 10732 10728 10723 10722 10718 10714 10708
10817 10813 10809 10806 10803 10799 10797 10795 10792 10791 10788 10784 10780 10775 10773 10769 10766 10763 10760 10756 10753 10750 10748 10745 10744 10743 10742 10742 10742 10741 10740 10739 10741 10740 10737 10736 10733 10732 10730 10728 10724 10720 10719 10715 10710 10707 10703 10699 10693
10809 10807 10803 10799 10797 10795 10791 10789 10787 10782 10781 10779 10776 10772 10769 10766 10763 10760 10758 10755 10752 10749 10745 10741 10738 10734 10732 10731 10730 10729 10728 10726 10725 10723 10719 10719 10715 10712 10714 10711 10707 10703 10701 10699 10694 10693 10686 10681 10677
10802 10800 10795 10792 10790 10788 10785 10781 10781 10780 10775 10773 10771 10768 10765 10762 10760 10757 10754 10751 10748 10746 10743 10739 10736 10733 10730 10728 10724 10721 10719 10715 10712 10710 10707 10704 10700 10696 10694 10690 10688 10686 10683 10680 10678 10676 10667 10664 10663
10795 10791 10788 10785 10783 10779 10778 10774 10775 10771 10769 10767 10764 10762 10760 10757 10754 10752 10750 10747 10744 10741 10738 10735 10731 10728 10725 10722 10718 10715 10712 10708 10704 10700 10695 10691 10686 10680 10676 10672 10672 10667 10663 10660 10657 10654 10650 10647 10646